[[{"header":{"parameterUnit":"m.s-1","parameterCategory":1,"la1":30.2991,"la2":30.254,"lo1":-89.0895,"lo2":-89.0444,"dy":0.0017,"dx":0.0017,"nx":28,"ny":28,"refTime":"2025-02-03T09:00:00:Z","depth":0,"parameterNumber":2,"parameterNumberName":"U-component_of_WINDS"},"data":[0,0,0,0,0,0,0,0,0,0,0,0,0,0,0,0,0,0,0,0,0,0,0,0,0,0,0,0,0,0,0,0,0,0,0,0,0,0,0,0,0,0,0,0,0,0,0,0,0,0,0,0,0,0,0,0,0,0,0.0996,0.0996,0,0.103,0.103,0.103,0.1052,0.1052,0.1052,0.1052,0.1086,0.1087,0.1088,0,0,0,0,0,0,0,0,0,0,0,0,0,0.0949,0.095,0.0996,0.0996,0.0997,0.103,0.103,0.1031,0.1052,0.1052,0.1052,0.1052,0.1086,0.1087,0.1088,0,0,0,0,0,0,0,0,0,0,0,0,0,0.0975,0.095,0.0996,0.1011,0.1013,0.103,0.103,0.1031,0.1052,0.1052,0.1052,0.1052,0.1086,0.1087,0.1088,0.1092,0,0,0.1092,0.1092,0,0,0,0,0,0,0,0,0.0973,0.0976,0.1009,0.101,0.1012,0.1037,0.1026,0.1051,0.1051,0.1037,0.1052,0.1052,0.1069,0.1072,0.1078,0.1093,0.1095,0.1092,0.1092,0.1093,0.1093,0,0,0,0,0,0,0,0.0971,0.0975,0.1009,0.1009,0.1011,0.1016,0.102,0.1031,0.1052,0.1038,0.104,0.1044,0.1071,0.1077,0.1079,0.1095,0.1092,0.1093,0.1093,0.1094,0.1114,0.1114,0,0,0,0,0,0,0.0967,0.0973,0.1008,0.101,0.0993,0.1017,0.1021,0.1029,0.1052,0.1055,0.1043,0.1044,0.1075,0.1077,0.108,0.1085,0.1093,0.1094,0.1095,0.1114,0.1114,0.1114,0,0,0,0,0,0,0.0966,0.097,0.1007,0.0992,0.0997,0.1018,0.1026,0.1029,0.1035,0.1056,0.1059,0.1046,0.1075,0.1078,0.1088,0.1087,0.1095,0.1096,0.1115,0.1114,0.1114,0.1096,0,0,0,0,0,0,0.0965,0.097,0.0972,0.0992,0.0998,0.1015,0.1026,0.103,0.1037,0.1039,0.1059,0.1062,0.1075,0.1087,0.109,0.1089,0.1097,0.1115,0.1115,0.1114,0.1097,0.1095,0.1094,0,0,0,0,0,0.0963,0.0965,0.0972,0.0976,0.1001,0.1015,0.1018,0.1033,0.1037,0.1039,0.1052,0.1062,0.1087,0.1087,0.1091,0.109,0.1115,0.1115,0.1114,0.1098,0.1096,0.1094,0,0,0,0,0,0,0.0944,0.0968,0.0976,0.0985,0.0997,0.1018,0.1021,0.103,0.1042,0.1043,0.1061,0.1065,0.1073,0.1083,0.1083,0.1095,0.1102,0.1102,0.1088,0.1086,0.1085,0.1082,0.1098,0,0,0,0,0,0.0941,0.095,0.0971,0.0977,0.0983,0.1001,0.1007,0.1018,0.1032,0.1037,0.1051,0.1064,0.1074,0.1081,0.1092,0.1099,0.1103,0.11,0.1098,0.1097,0.1097,0.11,0.1099,0.1113,0.1113,0.1113,0,0,0.0935,0.0949,0.0954,0.0974,0.0985,0.0993,0.1005,0.1014,0.1021,0.1038,0.1048,0.1059,0.1074,0.1082,0.1087,0.1091,0.1094,0.1097,0.1095,0.1096,0.11,0.1098,0.1097,0.1113,0.1113,0.1113,0,0,0.0927,0.094,0.0946,0.0956,0.0973,0.0985,0.0986,0.1005,0.1013,0.1023,0.1036,0.1044,0.1062,0.1073,0.108,0.1076,0.1085,0.1079,0.1071,0.1074,0.1073,0.1072,0.107,0.1069,0.1079,0.1079,0.1079,0,0.0917,0.0932,0.0947,0.0956,0.0963,0.0979,0.0985,0.0995,0.1014,0.1019,0.1023,0.1046,0.1058,0.1068,0.1067,0.1073,0.1074,0.1077,0.1072,0.1071,0.107,0.1068,0.1068,0.1078,0.1078,0.1078,0.1078,0,0.0918,0.0928,0.093,0.0948,0.0957,0.0964,0.098,0.0986,0.0996,0.1007,0.1017,0.1031,0.1045,0.1048,0.1057,0.1059,0.1061,0.1068,0.1076,0.1068,0.1066,0.1066,0.1077,0.1077,0.1077,0.1078,0,0,0.09,0.0926,0.0927,0.0935,0.0954,0.0962,0.0969,0.0982,0.0987,0.1,0.1006,0.102,0.1027,0.1036,0.1046,0.1049,0.1043,0.1056,0.1056,0.1052,0.1046,0.104,0.1038,0.105,0.105,0.105,0.1044,0,0.0895,0.091,0.0924,0.0933,0.0941,0.0956,0.0962,0.0974,0.0985,0.0993,0.1005,0.1015,0.1023,0.1028,0.1031,0.1043,0.1042,0.1044,0.1055,0.1055,0.105,0.1038,0.1032,0.1026,0.1043,0.1043,0.1043,0,0.0892,0.0903,0.0913,0.0931,0.0935,0.094,0.0953,0.0961,0.0975,0.0982,0.0991,0.1002,0.101,0.1017,0.1028,0.1028,0.1034,0.104,0.104,0.1042,0.1048,0.1038,0.1024,0.1023,0.1043,0.1043,0.1043,0,0.0877,0.0895,0.0903,0.0909,0.093,0.0934,0.0942,0.0956,0.0963,0.0974,0.0979,0.0991,0.0997,0.1006,0.102,0.1023,0.1028,0.1037,0.1034,0.1034,0.1034,0.1034,0.102,0.1039,0.1039,0.1039,0.1039,0,0.087,0.0875,0.0896,0.0901,0.0907,0.0923,0.0928,0.0939,0.0951,0.0957,0.0971,0.0977,0.0995,0.1003,0.1013,0.102,0.1023,0.1029,0.1031,0.1027,0.1026,0.1031,0.1031,0.1038,0.1039,0.1039,0.1039,0,0.0854,0.0869,0.0878,0.0897,0.0902,0.0905,0.0921,0.0926,0.0937,0.0945,0.0948,0.0965,0.0975,0.0989,0.1004,0.1011,0.1015,0.102,0.1011,0.1012,0.1009,0.1009,0.0997,0.0996,0.1015,0.1015,0.1015,0,0.0848,0.0853,0.0872,0.0877,0.0885,0.0894,0.0901,0.0917,0.0923,0.0939,0.0942,0.0952,0.0962,0.0977,0.099,0.1001,0.1006,0.1001,0.1007,0.1003,0.1005,0.1004,0.1004,0.0999,0.0999,0.0999,0.0998,0,0.0836,0.0843,0.0853,0.0865,0.0872,0.0883,0.0893,0.0897,0.0915,0.0921,0.0931,0.0939,0.0953,0.0963,0.0976,0.0984,0.0994,0.0996,0.0996,0.0991,0.0985,0.0988,0.1006,0.0996,0.0997,0.0997,0.0997,0.0997,0.0825,0.0829,0.0843,0.0853,0.0863,0.0872,0.0877,0.0889,0.0898,0.091,0.0919,0.0928,0.0941,0.0959,0.0967,0.0974,0.0978,0.0978,0.0978,0.0978,0.0976,0.0985,0.0976,0.0977,0.0977,0.0977,0.0977,0,0.0813,0.0823,0.0832,0.0846,0.0854,0.0862,0.0874,0.088,0.0888,0.0899,0.0908,0.0919,0.0929,0.0943,0.0954,0.0957,0.0961,0.0959,0.0958,0.096,0.0972,0.0971,0.0955,0.0955,0.0955,0.0955,0.0955,0.0955,0.0808,0.0815,0.0823,0.0835,0.0845,0.0854,0.086,0.0868,0.0877,0.0889,0.0897,0.0906,0.0918,0.093,0.0939,0.0943,0.0946,0.0942,0.0947,0.0957,0.0959,0.0961,0.096,0.0942,0.0942,0.0934,0.0934,0.0934]},{"header":{"parameterUnit":"m.s-1","parameterCategory":1,"la1":30.2991,"la2":30.254,"lo1":-89.0895,"lo2":-89.0444,"dy":0.0017,"dx":0.0017,"nx":28,"ny":28,"refTime":"2025-02-03T09:00:00:Z","depth":0,"parameterNumber":3,"parameterNumberName":"V-component_of_WINDS"},"data":[0,0,0,0,0,0,0,0,0,0,0,0,0,0,0,0,0,0,0,0,0,0,0,0,0,0,0,0,0,0,0,0,0,0,0,0,0,0,0,0,0,0,0,0,0,0,0,0,0,0,0,0,0,0,0,0,0,0,1.4315,1.4315,0,1.4269,1.4268,1.4268,1.4257,1.4257,1.4257,1.4258,1.4207,1.4206,1.4204,0,0,0,0,0,0,0,0,0,0,0,0,0,1.4393,1.4391,1.4315,1.4315,1.4314,1.4269,1.4268,1.4268,1.4257,1.4257,1.4257,1.4258,1.4208,1.4206,1.4204,0,0,0,0,0,0,0,0,0,0,0,0,0,1.4354,1.4391,1.4316,1.4303,1.4302,1.4269,1.4268,1.4267,1.4257,1.4257,1.4258,1.4258,1.4208,1.4206,1.4204,1.4179,0,0,1.4196,1.4195,0,0,0,0,0,0,0,0,1.4356,1.4351,1.4306,1.4304,1.4302,1.4269,1.4277,1.4238,1.4256,1.4274,1.4258,1.4258,1.4227,1.4223,1.4213,1.4176,1.4174,1.4196,1.4194,1.4193,1.4193,0,0,0,0,0,0,0,1.4359,1.4353,1.4297,1.4305,1.4303,1.43,1.4295,1.4269,1.4248,1.4272,1.4271,1.4266,1.4226,1.4216,1.4212,1.4173,1.4196,1.4194,1.4192,1.4191,1.4114,1.4113,0,0,0,0,0,0,1.4364,1.4355,1.4298,1.4296,1.4331,1.4298,1.4292,1.4279,1.4249,1.4244,1.4266,1.4266,1.422,1.4215,1.421,1.4179,1.4193,1.4191,1.419,1.4114,1.4114,1.4113,0,0,0,0,0,0,1.4366,1.4359,1.43,1.4325,1.4317,1.4296,1.4282,1.4278,1.4268,1.4244,1.424,1.4259,1.422,1.4214,1.4187,1.4177,1.419,1.4188,1.4115,1.4114,1.4113,1.4117,0,0,0,0,0,0,1.4368,1.436,1.435,1.4325,1.4316,1.4278,1.4281,1.4277,1.4264,1.4263,1.4236,1.4232,1.422,1.4191,1.4184,1.4174,1.4186,1.4116,1.4115,1.4114,1.4118,1.4117,1.4116,0,0,0,0,0,1.4371,1.4353,1.435,1.4343,1.4304,1.4278,1.4273,1.426,1.4263,1.4253,1.4238,1.4233,1.418,1.4188,1.4181,1.417,1.4116,1.4115,1.4114,1.4118,1.4117,1.4116,0,0,0,0,0,0,1.4376,1.4349,1.4346,1.4319,1.4301,1.4276,1.4263,1.4258,1.4238,1.4239,1.4222,1.4216,1.4191,1.4177,1.4187,1.4144,1.4148,1.4145,1.4154,1.4152,1.4151,1.4155,1.4184,0,0,0,0,0,1.4375,1.4356,1.4333,1.4312,1.4303,1.4285,1.4273,1.4265,1.4245,1.4237,1.4219,1.4199,1.4178,1.4164,1.4143,1.4116,1.411,1.4105,1.4104,1.4103,1.4101,1.4085,1.4083,1.4109,1.4109,1.4109,0,0,1.4371,1.4354,1.4343,1.4313,1.4298,1.4278,1.4278,1.4258,1.4243,1.4233,1.4207,1.4194,1.417,1.4143,1.413,1.4131,1.4092,1.4101,1.4101,1.4099,1.4084,1.4081,1.4079,1.4108,1.4108,1.4108,0,0,1.4354,1.4339,1.432,1.4305,1.4283,1.4271,1.4267,1.4242,1.4233,1.4207,1.4199,1.4181,1.4145,1.4129,1.4116,1.4094,1.4088,1.4087,1.4081,1.4066,1.4064,1.4062,1.4055,1.4052,1.4085,1.4085,1.4085,0,1.4352,1.4323,1.4311,1.4291,1.4278,1.4269,1.4249,1.4235,1.4206,1.4197,1.4199,1.4154,1.4138,1.4107,1.4101,1.4091,1.4085,1.409,1.4066,1.4064,1.4062,1.4054,1.4051,1.4085,1.4085,1.4085,1.4085,0,1.4322,1.4302,1.4289,1.4263,1.4248,1.4228,1.4213,1.4199,1.4192,1.418,1.4153,1.4134,1.4109,1.4101,1.4093,1.4069,1.407,1.4069,1.4072,1.406,1.4052,1.4049,1.4085,1.4085,1.4085,1.4085,0,0,1.4307,1.4275,1.427,1.4259,1.4233,1.4217,1.4197,1.4174,1.4163,1.4143,1.4126,1.4095,1.4095,1.408,1.407,1.4058,1.4041,1.4058,1.4057,1.4056,1.4013,1.4015,1.4011,1.4038,1.4037,1.4037,1.4015,0,1.4287,1.4251,1.424,1.421,1.4192,1.4183,1.4165,1.4148,1.4136,1.4118,1.4104,1.4083,1.4083,1.4075,1.4061,1.4046,1.4033,1.4048,1.4021,1.402,1.4027,1.4007,1.4008,1.3989,1.4012,1.4012,1.4012,0,1.4259,1.424,1.4209,1.4187,1.4179,1.4163,1.4141,1.4124,1.4104,1.4096,1.408,1.4072,1.405,1.4055,1.4024,1.4034,1.4022,1.4013,1.4012,1.4009,1.4015,1.4004,1.3983,1.398,1.4007,1.4007,1.4007,0,1.4252,1.4219,1.4196,1.4186,1.4159,1.4149,1.4137,1.4117,1.4104,1.4084,1.4076,1.4053,1.4041,1.4024,1.401,1.4014,1.398,1.3984,1.3973,1.3973,1.3966,1.3966,1.3943,1.3958,1.3958,1.3958,1.3958,0,1.4231,1.4212,1.4192,1.4178,1.4157,1.4144,1.4123,1.411,1.4093,1.4076,1.4066,1.405,1.4033,1.4014,1.4003,1.3979,1.3974,1.3966,1.3964,1.3967,1.3968,1.3959,1.396,1.3957,1.3958,1.3958,1.3958,0,1.4219,1.4205,1.418,1.4157,1.4151,1.4136,1.4116,1.4102,1.409,1.4068,1.4062,1.4043,1.4021,1.4005,1.3976,1.3969,1.3943,1.394,1.3951,1.3949,1.3939,1.394,1.3909,1.3904,1.3923,1.3923,1.3923,0,1.4207,1.4192,1.4168,1.4157,1.4145,1.4127,1.4114,1.41,1.4086,1.4062,1.4051,1.4028,1.401,1.3974,1.3957,1.3935,1.3932,1.3922,1.3928,1.3933,1.3932,1.3933,1.3932,1.3922,1.3921,1.3921,1.3921,0,1.4186,1.418,1.4162,1.4142,1.4127,1.411,1.4093,1.4084,1.4067,1.4052,1.403,1.4016,1.3987,1.3964,1.3941,1.3928,1.3921,1.392,1.3916,1.3919,1.3926,1.3923,1.3948,1.392,1.392,1.392,1.392,1.392,1.4174,1.4161,1.4142,1.4123,1.4109,1.4093,1.4079,1.4065,1.4047,1.4023,1.4016,1.3993,1.3973,1.3941,1.3927,1.3909,1.3909,1.3904,1.3902,1.3901,1.3902,1.3929,1.3904,1.3904,1.3904,1.3904,1.3904,0,1.4153,1.4141,1.4123,1.41,1.4085,1.4081,1.4062,1.4049,1.403,1.4012,1.3994,1.3969,1.3947,1.3929,1.3906,1.3895,1.3891,1.3889,1.389,1.3887,1.3902,1.3908,1.3892,1.3892,1.3892,1.3892,1.3892,1.3892,1.4141,1.4119,1.4111,1.4082,1.4069,1.4048,1.4037,1.4022,1.4008,1.3981,1.3963,1.3952,1.3934,1.391,1.389,1.3885,1.3877,1.3876,1.387,1.3885,1.3886,1.3887,1.3892,1.3874,1.3874,1.3856,1.3856,1.3856]}]]